Location: ??????????
(44.2167°N, 135.5333°E)
Time: 14:28:26
(UTC+00:00)

Geosat - Pass Details

Date: 15 June 2025
Orbit: 758 x 761 km, 108.0° (Epoch: 15 July)

Event Time Altitude Azimuth Distance (km) Brightness Sun altitude
Rises 13:03:30 0° 26° (NNE) 3,231 7.8 -17.5°
Reaches altitude 10° 13:05:47 10° 26° (NNE) 2,301 7.0 -17.7°
Maximum altitude 13:10:49 87° 299° (WNW) 768 4.0 -18.1°
Enters shadow 13:14:56 15° 210° (SSW) 1,937 5.8 -18.4°
